This is the latest recevied weather packets stored in our database for station/object DL5DI-H. If no packets are shown the sender has not sent any weather packets the latest 10 day(s).
| Time | Temp. | Humidity | Pressure | Rain* | Wind** | Luminosity | Snow |
|---|---|---|---|---|---|---|---|
| 1788142200 | 17.22° C | 91% | 1012.9 hPa | 0.25 mm | - | - | - |
| 1788141602 | 17.22° C | 90% | 1012.9 hPa | 0 mm | - | - | - |
| 1788141001 | 17.22° C | 89% | 1012.9 hPa | 0.25 mm | - | - | - |
| 1788140400 | 17.22° C | 89% | 1012.9 hPa | 0.51 mm | - | - | - |
| 1788139801 | 17.22° C | 89% | 1013 hPa | 0.76 mm | - | - | - |
| 1788139201 | 17.22° C | 88% | 1013.2 hPa | 1.27 mm | - | - | - |
| 1788138600 | 17.22° C | 88% | 1013.2 hPa | 1.78 mm | - | - | - |
| 1788138002 | 17.22° C | 88% | 1013.4 hPa | 2.79 mm | - | - | - |
| 1788137403 | 17.22° C | 87% | 1013.3 hPa | 3.56 mm | - | - | - |
| 1788136802 | 17.22° C | 86% | 1013.1 hPa | 3.56 mm | - | - | - |
| 1788136202 | 17.22° C | 86% | 1013.3 hPa | 3.81 mm | - | - | - |
| 1788135602 | 17.22° C | 84% | 1013.4 hPa | 3.05 mm | - | - | - |
| 1788135002 | 17.78° C | 83% | 1013.4 hPa | 2.54 mm | - | - | - |
| 1788134402 | 17.78° C | 82% | 1013.6 hPa | 1.52 mm | - | - | - |
| 1788133801 | 18.33° C | 80% | 1013.6 hPa | 0.76 mm | - | - | - |
| 1788133202 | 18.33° C | 79% | 1013.4 hPa | 0.25 mm | - | - | - |
| 1788132601 | 18.33° C | 76% | 1013.5 hPa | 0 mm | - | - | - |
| 1788132002 | 18.33° C | 75% | 1013.5 hPa | 0 mm | - | - | - |
| 1788131402 | 18.33° C | 75% | 1013.3 hPa | 0 mm | - | - | - |
| 1788130802 | 18.33° C | 74% | 1013.3 hPa | 0 mm | - | - | - |
| 1788130202 | 18.33° C | 72% | 1013.2 hPa | 0 mm | - | - | - |
| 1788129601 | 18.33° C | 72% | 1013.3 hPa | 0 mm | - | - | - |
| 1788129015 | 18.33° C | 71% | 1013.4 hPa | 0 mm | - | - | - |
| 1788128402 | 18.33° C | 71% | 1013.5 hPa | 0 mm | - | - | - |
| 1788127802 | 18.89° C | 71% | 1013.5 hPa | 0 mm | - | - | - |
* Rain latest hour (hover to see other rain measurements)
** Current wind speed in m/s (hover to see current wind gust speed)